User: anonymous   Login
Location: Unspecified
(0.0000°N, 0.0000°E)
Time: 00:05:44
(UTC+00:00)
Language:

MUOS 5 - Orbit

View from above orbital plane
View from above orbital plane
View from above satellite
View from above satellite

Ground track
Ground track

The orbit is defined by the following mean orbital elements,

1 41622U          26145.56318832 +.00000000 +00000-0 +00000-0 0 00002
2 41622   2.2509 301.2609 0195965 261.1088 138.3738  1.00268395    04
Epoch (UTC): 25 May 2026 13:30:59
Eccentricity: 0.0195965
inclination: 2.2509°
perigee height: 34961 km
apogee height: 36614 km
right ascension of ascending node: 301.2609°
argument of perigee: 261.1088°
revolutions per day: 1.00268395
mean anomaly at epoch: 138.3738°

The dashed part of the orbit path shows where the satellite is in the earth's shadow,  

DLR